Home > Weather > Oulu > Past weeks

Flag for Finland Past Weather in Oulu, Finland — Yesterday and Last 2 Weeks

Now
64 °F

Partly sunny.


Feels Like: 64 °F
Forecast: 58 / 76 °F
Wind: 3 mph from South

Location: Oulu Airport

Current Time: Jul 29, 2016 at 9:04:22 AM

Latest Report: Jul 29, 2016 at 8:20 AM


Visibility: N/A

Pressure: 29.83 "Hg

Humidity: 83%

Dew Point: 59 °F

Location of OuluLocation

Past Weather in Oulu — Graph

°F

Oulu Temperature Yesterday

Maximum temperature yesterday: 72 °F (at 1:20 PM)
Minimum temperature yesterday: 61 °F (at 2:50 AM)
Average temperature yesterday: 66 °F

High & Low Weather Summary for the Past Weeks

 TemperatureHumidityPressure
High79 °F (Jul 22, 4:50 PM)100% (Jul 15, 6:20 AM)30.18 "Hg (Jul 15, 6:20 AM)
Low52 °F (Jul 18, 11:50 PM)26% (Jul 22, 3:50 PM)29.53 "Hg (Jul 16, 10:50 AM)
Average65 °F74%29.92 "Hg
* Reported Jul 14 7:20 AM — Jul 29 7:50 AM, Oulu, Weather by CustomWeather, © 2016

Note: Actual official high and low records may vary slightly from our data, if they occured in-between our weather recording intervals... More about our weather records

Advertising

Oulu Weather History for the Previous 24 Hours

Scroll right to see more
 ConditionsComfort  
Time TempWeatherWind HumidityBarometerVisibility
7:50 AM
Fri, Jul 29
63 °FPartly sunny.1 mph88%29.83 "HgN/A
7:20 AM59 °FSunny.2 mph94%29.83 "Hg10 mi
6:50 AM59 °FPassing clouds.3 mph94%29.83 "HgN/A
6:20 AM57 °FPartly sunny.3 mph94%29.83 "HgN/A
5:50 AM57 °FPartly sunny.5 mph94%29.83 "HgN/A
5:20 AM55 °FPassing clouds.5 mph100%29.83 "HgN/A
4:50 AM55 °FPassing clouds.5 mph94%29.83 "HgN/A
4:20 AM54 °FClear.5 mph100%29.83 "Hg10 mi
3:50 AM54 °FClear.5 mph94%29.83 "Hg10 mi
3:20 AM54 °FPassing clouds.3 mph100%29.83 "HgN/A
2:50 AM55 °FClear.2 mph94%29.83 "Hg10 mi
2:20 AM54 °FClear.5 mph100%29.83 "Hg10 mi
1:50 AM55 °FClear.3 mph94%29.83 "Hg10 mi
1:20 AM55 °FClear.3 mph100%29.83 "Hg10 mi
12:50 AM57 °FClear.3 mph94%29.83 "Hg10 mi
12:20 AM61 °FClear.5 mph88%29.83 "Hg10 mi
11:50 PM
Thu, Jul 28
61 °FPassing clouds.6 mph88%29.83 "HgN/A
11:20 PM63 °FSunny.5 mph83%29.83 "Hg10 mi
10:50 PM64 °FPassing clouds.5 mph83%29.83 "HgN/A
10:20 PM66 °FOvercast.5 mph73%29.83 "HgN/A
9:50 PM66 °FOvercast.3 mph68%29.83 "HgN/A
9:20 PM66 °FOvercast.5 mph73%29.83 "HgN/A
8:50 PM66 °FLight rain. More clouds than sun.8 mph73%29.83 "HgN/A
8:20 PM68 °FMore clouds than sun.7 mph64%29.83 "HgN/A
7:50 PM70 °FLight rain. More clouds than sun.5 mph60%29.83 "HgN/A
7:20 PM70 °FOvercast.6 mph57%29.83 "HgN/A
6:50 PM70 °FPartly sunny.6 mph60%29.83 "HgN/A
6:20 PM70 °FScattered clouds.7 mph57%29.83 "HgN/A
5:50 PM70 °FPartly sunny.8 mph57%29.83 "HgN/A
5:20 PM70 °FMostly cloudy.5 mph69%29.83 "HgN/A
4:50 PM68 °FBroken clouds.8 mph69%29.83 "HgN/A
4:20 PM70 °FBroken clouds.9 mph73%29.86 "HgN/A
3:50 PM70 °FScattered clouds.7 mph73%29.83 "HgN/A
3:20 PM70 °FScattered clouds.9 mph78%29.86 "HgN/A
2:50 PM70 °FBroken clouds.10 mph78%29.86 "HgN/A
2:20 PM68 °FPartly sunny.10 mph83%29.86 "HgN/A
1:50 PM72 °FPassing clouds.7 mph65%29.86 "HgN/A
1:20 PM72 °FPassing clouds.7 mph61%29.86 "HgN/A
12:50 PM70 °FPassing clouds.7 mph64%29.86 "HgN/A
12:20 PM70 °FPassing clouds.7 mph69%29.86 "HgN/A
11:50 AM70 °FPassing clouds.8 mph73%29.86 "HgN/A
11:20 AM68 °FSunny.7 mph73%29.86 "Hg10 mi
10:50 AM66 °FPassing clouds.6 mph83%29.86 "HgN/A
10:20 AM66 °FSunny.6 mph78%29.86 "Hg10 mi
9:50 AM66 °FScattered clouds.7 mph83%29.83 "HgN/A
9:20 AM64 °FPartly sunny.6 mph88%29.83 "HgN/A
Weather by CustomWeather, © 2016

See weather overviewHow to use our weather pages